Time,TemperatureF,DewpointF,PressureIn,WindDirection,WindDirectionDegrees,WindSpeedMPH,WindSpeedGustMPH,Humidity,HourlyPrecipIn,Conditions,Clouds,dailyrainin,SoftwareType,DateUTC
2013-07-31 00:00:00,58.0,53.5,30.06,South,180,1.0,2.0,85,0.00,,,-99.99,Weather View 32 v60,2013-07-31 05:00:00,
2013-07-31 00:05:00,58.0,53.5,30.06,SSW,202,1.0,2.0,85,0.00,,,-99.99,Weather View 32 v60,2013-07-31 05:05:00,
2013-07-31 00:10:00,58.0,53.5,30.06,SW,225,2.0,3.0,85,0.00,,,-99.99,Weather View 32 v60,2013-07-31 05:10:00,
2013-07-31 00:15:00,58.0,53.8,30.06,SW,225,1.0,3.0,86,0.00,,,-99.99,Weather View 32 v60,2013-07-31 05:15:00,
2013-07-31 00:20:00,58.0,53.8,30.06,WSW,248,2.0,3.0,86,0.00,,,-99.99,Weather View 32 v60,2013-07-31 05:20:00,
2013-07-31 00:25:00,58.0,53.8,30.05,SSW,202,1.0,3.0,86,0.00,,,-99.99,Weather View 32 v60,2013-07-31 05:25:00,
2013-07-31 00:30:00,57.0,52.8,30.06,SW,225,1.0,3.0,86,0.00,,,-99.99,Weather View 32 v60,2013-07-31 05:30:00,
2013-07-31 00:35:00,57.0,52.8,30.06,WSW,248,1.0,3.0,86,0.00,,,-99.99,Weather View 32 v60,2013-07-31 05:35:00,
2013-07-31 00:40:00,57.0,52.8,30.06,West,270,2.0,3.0,86,0.00,,,-99.99,Weather View 32 v60,2013-07-31 05:40:00,
2013-07-31 00:45:00,57.0,52.8,30.06,WSW,248,1.0,3.0,86,0.00,,,-99.99,Weather View 32 v60,2013-07-31 05:45:00,
2013-07-31 00:50:00,57.0,52.8,30.06,WSW,248,1.0,3.0,86,0.00,,,-99.99,Weather View 32 v60,2013-07-31 05:50:00,
2013-07-31 00:55:00,57.0,52.8,30.07,WSW,248,1.0,3.0,86,0.00,,,-99.99,Weather View 32 v60,2013-07-31 05:55:00,
2013-07-31 01:00:00,56.0,51.9,30.07,SW,225,1.0,3.0,86,0.00,,,-99.99,Weather View 32 v60,2013-07-31 06:00:00,
2013-07-31 01:05:00,56.0,51.9,30.07,SW,225,0.0,3.0,86,0.00,,,-99.99,Weather View 32 v60,2013-07-31 06:05:00,
2013-07-31 01:10:00,56.0,51.9,30.07,SW,225,0.0,3.0,86,0.00,,,-99.99,Weather View 32 v60,2013-07-31 06:10:00,
2013-07-31 01:15:00,56.0,51.9,30.07,WSW,248,1.0,3.0,86,0.00,,,-99.99,Weather View 32 v60,2013-07-31 06:15:00,
2013-07-31 01:20:00,56.0,52.2,30.07,WSW,248,0.0,3.0,87,0.00,,,-99.99,Weather View 32 v60,2013-07-31 06:20:00,
2013-07-31 01:25:00,56.0,52.2,30.07,SW,225,0.0,3.0,87,0.00,,,-99.99,Weather View 32 v60,2013-07-31 06:25:00,
2013-07-31 01:30:00,56.0,52.2,30.07,West,270,0.0,3.0,87,0.00,,,-99.99,Weather View 32 v60,2013-07-31 06:30:00,
2013-07-31 01:35:00,56.0,52.2,30.07,SW,225,0.0,3.0,87,0.00,,,-99.99,Weather View 32 v60,2013-07-31 06:35:00,
2013-07-31 01:40:00,56.0,52.2,30.07,SW,225,1.0,3.0,87,0.00,,,-99.99,Weather View 32 v60,2013-07-31 06:40:00,
2013-07-31 01:45:00,57.0,53.2,30.07,WSW,248,1.0,3.0,87,0.00,,,-99.99,Weather View 32 v60,2013-07-31 06:45:00,
2013-07-31 01:50:00,57.0,53.2,30.07,SW,225,0.0,3.0,87,0.00,,,-99.99,Weather View 32 v60,2013-07-31 06:50:00,
2013-07-31 01:55:00,57.0,53.2,30.07,West,270,1.0,3.0,87,0.00,,,-99.99,Weather View 32 v60,2013-07-31 06:55:00,
2013-07-31 02:00:00,57.0,53.2,30.07,SW,225,0.0,3.0,87,0.00,,,-99.99,Weather View 32 v60,2013-07-31 07:00:00,
2013-07-31 02:05:00,57.0,53.2,30.06,SW,225,0.0,3.0,87,0.00,,,-99.99,Weather View 32 v60,2013-07-31 07:05:00,
2013-07-31 02:10:00,57.0,53.2,30.06,SW,225,0.0,3.0,87,0.00,,,-99.99,Weather View 32 v60,2013-07-31 07:10:00,
2013-07-31 02:15:00,57.0,53.2,30.07,West,270,3.0,3.0,87,0.00,,,-99.99,Weather View 32 v60,2013-07-31 07:15:00,
2013-07-31 02:20:00,57.0,53.2,30.07,SW,225,3.0,5.0,87,0.00,,,-99.99,Weather View 32 v60,2013-07-31 07:20:00,
2013-07-31 02:25:00,57.0,53.2,30.08,SW,225,1.0,5.0,87,0.00,,,-99.99,Weather View 32 v60,2013-07-31 07:25:00,
2013-07-31 02:30:00,57.0,53.2,30.08,WSW,248,1.0,5.0,87,0.00,,,-99.99,Weather View 32 v60,2013-07-31 07:30:00,
2013-07-31 02:35:00,57.0,53.2,30.07,SSW,202,1.0,5.0,87,0.00,,,-99.99,Weather View 32 v60,2013-07-31 07:35:00,
2013-07-31 02:40:00,57.0,53.2,30.07,WSW,248,3.0,5.0,87,0.00,,,-99.99,Weather View 32 v60,2013-07-31 07:40:00,
2013-07-31 02:45:00,58.0,54.5,30.06,SW,225,2.0,5.0,88,0.00,,,-99.99,Weather View 32 v60,2013-07-31 07:45:00,
2013-07-31 02:50:00,58.0,54.5,30.06,SW,225,3.0,5.0,88,0.00,,,-99.99,Weather View 32 v60,2013-07-31 07:50:00,
2013-07-31 02:55:00,59.0,55.4,30.06,WSW,248,2.0,5.0,88,0.00,,,-99.99,Weather View 32 v60,2013-07-31 07:55:00,
2013-07-31 03:00:00,59.0,55.4,30.06,WSW,248,1.0,5.0,88,0.00,,,-99.99,Weather View 32 v60,2013-07-31 08:00:00,
2013-07-31 03:05:00,59.0,55.4,30.06,WSW,248,3.0,5.0,88,0.00,,,-99.99,Weather View 32 v60,2013-07-31 08:05:00,
2013-07-31 03:10:00,59.0,55.4,30.06,SW,225,1.0,5.0,88,0.00,,,-99.99,Weather View 32 v60,2013-07-31 08:10:00,
2013-07-31 03:15:00,59.0,55.4,30.06,SW,225,1.0,5.0,88,0.00,,,-99.99,Weather View 32 v60,2013-07-31 08:15:00,
2013-07-31 03:20:00,59.0,55.4,30.06,SW,225,1.0,4.0,88,0.00,,,-99.99,Weather View 32 v60,2013-07-31 08:20:00,
2013-07-31 03:25:00,59.0,55.4,30.05,SSW,202,0.0,4.0,88,0.00,,,-99.99,Weather View 32 v60,2013-07-31 08:25:00,
2013-07-31 03:30:00,59.0,55.4,30.06,SW,225,1.0,4.0,88,0.00,,,-99.99,Weather View 32 v60,2013-07-31 08:30:00,
2013-07-31 03:35:00,59.0,55.4,30.06,WSW,248,1.0,4.0,88,0.00,,,-99.99,Weather View 32 v60,2013-07-31 08:35:00,
2013-07-31 03:40:00,59.0,55.4,30.06,WSW,248,2.0,4.0,88,0.00,,,-99.99,Weather View 32 v60,2013-07-31 08:40:00,
2013-07-31 03:45:00,59.0,55.4,30.05,SW,225,1.0,4.0,88,0.00,,,-99.99,Weather View 32 v60,2013-07-31 08:45:00,
2013-07-31 03:50:00,59.0,55.4,30.05,SW,225,2.0,4.0,88,0.00,,,-99.99,Weather View 32 v60,2013-07-31 08:50:00,
2013-07-31 03:55:00,59.0,55.4,30.05,SSW,202,1.0,4.0,88,0.00,,,-99.99,Weather View 32 v60,2013-07-31 08:55:00,
2013-07-31 04:00:00,59.0,55.4,30.06,WNW,292,1.0,4.0,88,0.00,,,-99.99,Weather View 32 v60,2013-07-31 09:00:00,
2013-07-31 04:05:00,59.0,55.4,30.06,WSW,248,3.0,4.0,88,0.00,,,-99.99,Weather View 32 v60,2013-07-31 09:05:00,
2013-07-31 04:10:00,59.0,55.4,30.06,WSW,248,1.0,4.0,88,0.00,,,-99.99,Weather View 32 v60,2013-07-31 09:10:00,
2013-07-31 04:15:00,59.0,55.4,30.06,SW,225,1.0,4.0,88,0.00,,,-99.99,Weather View 32 v60,2013-07-31 09:15:00,
2013-07-31 04:20:00,59.0,55.4,30.06,SW,225,1.0,4.0,88,0.00,,,-99.99,Weather View 32 v60,2013-07-31 09:20:00,
2013-07-31 04:25:00,59.0,55.4,30.06,West,270,3.0,4.0,88,0.00,,,-99.99,Weather View 32 v60,2013-07-31 09:25:00,
2013-07-31 04:30:00,59.0,55.4,30.06,WSW,248,1.0,4.0,88,0.00,,,-99.99,Weather View 32 v60,2013-07-31 09:30:00,
2013-07-31 04:35:00,59.0,55.4,30.06,SSW,202,0.0,3.0,88,0.00,,,-99.99,Weather View 32 v60,2013-07-31 09:35:00,
2013-07-31 04:40:00,59.0,55.4,30.06,SW,225,2.0,5.0,88,0.00,,,-99.99,Weather View 32 v60,2013-07-31 09:40:00,
2013-07-31 04:45:00,59.0,55.4,30.07,SW,225,3.0,5.0,88,0.00,,,-99.99,Weather View 32 v60,2013-07-31 09:45:00,
2013-07-31 04:50:00,59.0,55.4,30.07,WSW,248,2.0,5.0,88,0.00,,,-99.99,Weather View 32 v60,2013-07-31 09:50:00,
2013-07-31 04:55:00,59.0,55.8,30.07,WSW,248,2.0,5.0,89,0.00,,,-99.99,Weather View 32 v60,2013-07-31 09:55:00,
2013-07-31 05:00:00,59.0,55.8,30.07,West,270,3.0,5.0,89,0.00,,,-99.99,Weather View 32 v60,2013-07-31 10:00:00,
2013-07-31 05:05:00,59.0,55.8,30.07,WSW,248,1.0,5.0,89,0.00,,,-99.99,Weather View 32 v60,2013-07-31 10:05:00,
2013-07-31 05:10:00,59.0,55.8,30.07,WSW,248,1.0,5.0,89,0.00,,,-99.99,Weather View 32 v60,2013-07-31 10:10:00,
2013-07-31 05:15:00,59.0,55.8,30.07,WSW,248,3.0,5.0,89,0.00,,,-99.99,Weather View 32 v60,2013-07-31 10:15:00,
2013-07-31 05:20:00,59.0,55.8,30.07,SW,225,3.0,5.0,89,0.00,,,-99.99,Weather View 32 v60,2013-07-31 10:20:00,
2013-07-31 05:25:00,59.0,55.8,30.06,West,270,1.0,5.0,89,0.00,,,-99.99,Weather View 32 v60,2013-07-31 10:25:00,
2013-07-31 05:30:00,59.0,55.8,30.06,WSW,248,1.0,5.0,89,0.00,,,-99.99,Weather View 32 v60,2013-07-31 10:30:00,
2013-07-31 05:35:00,59.0,55.8,30.06,WSW,248,1.0,5.0,89,0.00,,,-99.99,Weather View 32 v60,2013-07-31 10:35:00,
2013-07-31 05:40:00,59.0,55.8,30.06,SW,225,0.0,5.0,89,0.00,,,-99.99,Weather View 32 v60,2013-07-31 10:40:00,
2013-07-31 05:45:00,59.0,55.8,30.06,SW,225,1.0,5.0,89,0.00,,,-99.99,Weather View 32 v60,2013-07-31 10:45:00,
2013-07-31 05:55:00,59.0,55.8,30.06,West,270,1.0,5.0,89,0.00,,,-99.99,Weather View 32 v60,2013-07-31 10:55:00,
2013-07-31 06:00:00,59.0,55.8,30.06,SW,225,2.0,5.0,89,0.00,,,-99.99,Weather View 32 v60,2013-07-31 11:00:00,
2013-07-31 06:05:00,60.0,56.7,30.06,WNW,292,1.0,5.0,89,0.00,,,-99.99,Weather View 32 v60,2013-07-31 11:05:00,
2013-07-31 06:10:00,60.0,56.7,30.07,WSW,248,1.0,5.0,89,0.00,,,-99.99,Weather View 32 v60,2013-07-31 11:10:00,
2013-07-31 06:15:00,59.0,55.8,30.05,SW,225,0.0,5.0,89,0.00,,,-99.99,Weather View 32 v60,2013-07-31 11:15:00,
2013-07-31 06:20:00,59.0,55.8,30.06,West,270,3.0,5.0,89,0.00,,,-99.99,Weather View 32 v60,2013-07-31 11:20:00,
2013-07-31 06:25:00,59.0,55.8,30.06,WSW,248,1.0,5.0,89,0.00,,,-99.99,Weather View 32 v60,2013-07-31 11:25:00,
2013-07-31 06:30:00,60.0,56.7,30.06,SSW,202,3.0,5.0,89,0.00,,,-99.99,Weather View 32 v60,2013-07-31 11:30:00,
2013-07-31 06:35:00,60.0,56.7,30.06,SSW,202,1.0,5.0,89,0.00,,,-99.99,Weather View 32 v60,2013-07-31 11:35:00,
2013-07-31 06:40:00,60.0,56.7,30.05,SSW,202,1.0,5.0,89,0.00,,,-99.99,Weather View 32 v60,2013-07-31 11:40:00,
2013-07-31 06:45:00,60.0,56.7,30.06,SW,225,0.0,5.0,89,0.00,,,-99.99,Weather View 32 v60,2013-07-31 11:45:00,
2013-07-31 06:50:00,60.0,56.7,30.05,SW,225,1.0,5.0,89,0.00,,,-99.99,Weather View 32 v60,2013-07-31 11:50:00,
2013-07-31 06:55:00,60.0,56.7,30.06,SW,225,0.0,5.0,89,0.01,,,-99.99,Weather View 32 v60,2013-07-31 11:55:00,
2013-07-31 07:00:00,60.0,56.7,30.06,WSW,248,0.0,5.0,89,0.01,,,-99.99,Weather View 32 v60,2013-07-31 12:00:00,
2013-07-31 07:05:00,60.0,56.7,30.06,SW,225,2.0,5.0,89,0.01,,,-99.99,Weather View 32 v60,2013-07-31 12:05:00,
2013-07-31 07:10:00,60.0,57.0,30.06,WSW,248,2.0,5.0,90,0.01,,,-99.99,Weather View 32 v60,2013-07-31 12:10:00,
2013-07-31 07:15:00,61.0,57.7,30.06,WSW,248,2.0,5.0,89,0.01,,,-99.99,Weather View 32 v60,2013-07-31 12:15:00,
2013-07-31 07:20:00,61.0,57.7,30.06,SW,225,1.0,5.0,89,0.01,,,-99.99,Weather View 32 v60,2013-07-31 12:20:00,
2013-07-31 07:25:00,61.0,58.0,30.06,SSW,202,2.0,5.0,90,0.01,,,-99.99,Weather View 32 v60,2013-07-31 12:25:00,
2013-07-31 07:30:00,61.0,58.0,30.06,SW,225,3.0,5.0,90,0.01,,,-99.99,Weather View 32 v60,2013-07-31 12:30:00,
2013-07-31 07:35:00,61.0,58.0,30.05,SSW,202,3.0,5.0,90,0.01,,,-99.99,Weather View 32 v60,2013-07-31 12:35:00,
2013-07-31 07:40:00,61.0,58.0,30.05,SSW,202,1.0,5.0,90,0.01,,,-99.99,Weather View 32 v60,2013-07-31 12:40:00,
2013-07-31 07:50:00,62.0,59.0,30.05,SW,225,1.0,5.0,90,0.01,,,-99.99,Weather View 32 v60,2013-07-31 12:50:00,
2013-07-31 07:55:00,62.0,59.0,30.05,WSW,248,1.0,5.0,90,0.00,,,-99.99,Weather View 32 v60,2013-07-31 12:55:00,
2013-07-31 08:00:00,62.0,59.0,30.05,WNW,292,1.0,5.0,90,0.00,,,-99.99,Weather View 32 v60,2013-07-31 13:00:00,
2013-07-31 08:05:00,62.0,59.0,30.06,WNW,292,1.0,5.0,90,0.00,,,-99.99,Weather View 32 v60,2013-07-31 13:05:00,
2013-07-31 08:10:00,62.0,59.0,30.06,SW,225,0.0,5.0,90,0.00,,,-99.99,Weather View 32 v60,2013-07-31 13:10:00,
2013-07-31 08:15:00,62.0,59.0,30.06,WNW,292,2.0,5.0,90,0.00,,,-99.99,Weather View 32 v60,2013-07-31 13:15:00,
2013-07-31 08:20:00,63.0,60.0,30.06,WSW,248,1.0,5.0,90,0.00,,,-99.99,Weather View 32 v60,2013-07-31 13:20:00,
2013-07-31 08:25:00,63.0,60.0,30.06,WNW,292,2.0,5.0,90,0.00,,,-99.99,Weather View 32 v60,2013-07-31 13:25:00,
2013-07-31 08:30:00,63.0,60.0,30.06,West,270,1.0,4.0,90,0.00,,,-99.99,Weather View 32 v60,2013-07-31 13:30:00,
2013-07-31 08:35:00,63.0,60.0,30.06,West,270,2.0,4.0,90,0.00,,,-99.99,Weather View 32 v60,2013-07-31 13:35:00,
2013-07-31 08:40:00,63.0,60.0,30.06,SW,225,1.0,6.0,90,0.00,,,-99.99,Weather View 32 v60,2013-07-31 13:40:00,
2013-07-31 08:45:00,63.0,60.3,30.06,West,270,1.0,6.0,91,0.00,,,-99.99,Weather View 32 v60,2013-07-31 13:45:00,
2013-07-31 08:50:00,64.0,61.3,30.06,WNW,292,1.0,6.0,91,0.00,,,-99.99,Weather View 32 v60,2013-07-31 13:50:00,
2013-07-31 08:55:00,64.0,61.3,30.06,West,270,1.0,6.0,91,0.00,,,-99.99,Weather View 32 v60,2013-07-31 13:55:00,
2013-07-31 09:00:00,64.0,61.3,30.05,SW,225,1.0,6.0,91,0.00,,,-99.99,Weather View 32 v60,2013-07-31 14:00:00,
2013-07-31 09:05:00,65.0,62.3,30.05,NW,315,4.0,6.0,91,0.00,,,-99.99,Weather View 32 v60,2013-07-31 14:05:00,
2013-07-31 09:10:00,65.0,62.3,30.05,SW,225,1.0,6.0,91,0.00,,,-99.99,Weather View 32 v60,2013-07-31 14:10:00,
2013-07-31 09:15:00,66.0,63.3,30.05,West,270,2.0,6.0,91,0.00,,,-99.99,Weather View 32 v60,2013-07-31 14:15:00,
2013-07-31 09:20:00,66.0,63.0,30.05,WSW,248,1.0,6.0,90,0.00,,,-99.99,Weather View 32 v60,2013-07-31 14:20:00,
2013-07-31 09:25:00,66.0,63.0,30.05,WNW,292,1.0,6.0,90,0.00,,,-99.99,Weather View 32 v60,2013-07-31 14:25:00,
2013-07-31 09:30:00,66.0,63.0,30.05,WNW,292,2.0,6.0,90,0.00,,,-99.99,Weather View 32 v60,2013-07-31 14:30:00,
2013-07-31 09:36:00,66.0,62.7,30.05,NW,315,3.0,6.0,89,0.00,,,-99.99,Weather View 32 v60,2013-07-31 14:36:00,
2013-07-31 09:45:00,67.0,63.3,30.06,West,270,1.0,6.0,88,0.00,,,-99.99,Weather View 32 v60,2013-07-31 14:45:00,
2013-07-31 09:50:00,68.0,64.3,30.05,WSW,248,1.0,6.0,88,0.00,,,-99.99,Weather View 32 v60,2013-07-31 14:50:00,
2013-07-31 09:55:00,68.0,64.0,30.05,West,270,4.0,6.0,87,0.00,,,-99.99,Weather View 32 v60,2013-07-31 14:55:00,
2013-07-31 10:00:00,67.0,62.7,30.05,WNW,292,2.0,6.0,86,0.00,,,-99.99,Weather View 32 v60,2013-07-31 15:00:00,
2013-07-31 10:05:00,68.0,63.6,30.05,NW,315,3.0,6.0,86,0.00,,,-99.99,Weather View 32 v60,2013-07-31 15:05:00,
2013-07-31 10:10:00,68.0,63.6,30.05,SW,225,1.0,6.0,86,0.00,,,-99.99,Weather View 32 v60,2013-07-31 15:10:00,
2013-07-31 10:20:00,68.0,63.0,30.05,NW,315,4.0,8.0,84,0.00,,,-99.99,Weather View 32 v60,2013-07-31 15:20:00,
2013-07-31 10:25:00,68.0,63.0,30.04,WSW,248,1.0,8.0,84,0.00,,,-99.99,Weather View 32 v60,2013-07-31 15:25:00,
2013-07-31 10:30:00,68.0,62.6,30.04,WNW,292,1.0,8.0,83,0.00,,,-99.99,Weather View 32 v60,2013-07-31 15:30:00,
2013-07-31 10:35:00,69.0,63.3,30.04,WSW,248,3.0,8.0,82,0.00,,,-99.99,Weather View 32 v60,2013-07-31 15:35:00,
2013-07-31 10:40:00,69.0,63.3,30.04,West,270,2.0,8.0,82,0.00,,,-99.99,Weather View 32 v60,2013-07-31 15:40:00,
2013-07-31 10:45:00,70.0,63.9,30.04,North,0,2.0,8.0,81,0.00,,,-99.99,Weather View 32 v60,2013-07-31 15:45:00,
2013-07-31 10:50:00,70.0,63.2,30.04,WNW,292,2.0,8.0,79,0.00,,,-99.99,Weather View 32 v60,2013-07-31 15:50:00,
2013-07-31 10:55:00,70.0,62.4,30.04,WNW,292,2.0,9.0,77,0.00,,,-99.99,Weather View 32 v60,2013-07-31 15:55:00,
2013-07-31 11:00:00,70.0,62.1,30.04,NNW,338,4.0,9.0,76,0.00,,,-99.99,Weather View 32 v60,2013-07-31 16:00:00,
2013-07-31 11:05:00,71.0,62.6,30.04,NNW,338,5.0,9.0,75,0.00,,,-99.99,Weather View 32 v60,2013-07-31 16:05:00,
2013-07-31 11:10:00,71.0,62.6,30.04,NNW,338,4.0,9.0,75,0.00,,,-99.99,Weather View 32 v60,2013-07-31 16:10:00,
2013-07-31 11:15:00,71.0,61.9,30.04,NW,315,10.0,10.0,73,0.00,,,-99.99,Weather View 32 v60,2013-07-31 16:15:00,
2013-07-31 11:20:00,72.0,62.8,30.04,WNW,292,5.0,10.0,73,0.00,,,-99.99,Weather View 32 v60,2013-07-31 16:20:00,
2013-07-31 11:25:00,72.0,62.0,30.04,West,270,3.0,10.0,71,0.00,,,-99.99,Weather View 32 v60,2013-07-31 16:25:00,
2013-07-31 11:30:00,73.0,62.6,30.04,North,0,6.0,10.0,70,0.00,,,-99.99,Weather View 32 v60,2013-07-31 16:30:00,
2013-07-31 11:35:00,73.0,61.8,30.03,WNW,292,4.0,10.0,68,0.00,,,-99.99,Weather View 32 v60,2013-07-31 16:35:00,
2013-07-31 11:40:00,73.0,61.8,30.03,North,0,5.0,10.0,68,0.00,,,-99.99,Weather View 32 v60,2013-07-31 16:40:00,
2013-07-31 11:45:00,73.0,61.4,30.03,West,270,2.0,10.0,67,0.00,,,-99.99,Weather View 32 v60,2013-07-31 16:45:00,
2013-07-31 11:50:00,74.0,61.4,30.03,WSW,248,3.0,13.0,65,0.00,,,-99.99,Weather View 32 v60,2013-07-31 16:50:00,
2013-07-31 11:55:00,74.0,61.0,30.03,NNE,22,8.0,13.0,64,0.00,,,-99.99,Weather View 32 v60,2013-07-31 16:55:00,
2013-07-31 12:00:00,73.0,59.6,30.03,NW,315,5.0,13.0,63,0.00,,,-99.99,Weather View 32 v60,2013-07-31 17:00:00,
2013-07-31 12:05:00,74.0,60.6,30.03,NNW,338,10.0,13.0,63,0.00,,,-99.99,Weather View 32 v60,2013-07-31 17:05:00,
2013-07-31 12:10:00,73.0,59.6,30.03,North,0,6.0,13.0,63,0.00,,,-99.99,Weather View 32 v60,2013-07-31 17:10:00,
2013-07-31 12:15:00,73.0,59.2,30.03,West,270,1.0,13.0,62,0.00,,,-99.99,Weather View 32 v60,2013-07-31 17:15:00,
2013-07-31 12:20:00,73.0,59.6,30.03,WSW,248,8.0,13.0,63,0.00,,,-99.99,Weather View 32 v60,2013-07-31 17:20:00,
2013-07-31 12:25:00,74.0,59.7,30.03,North,0,7.0,13.0,61,0.00,,,-99.99,Weather View 32 v60,2013-07-31 17:25:00,
2013-07-31 12:30:00,75.0,60.1,30.03,North,0,7.0,13.0,60,0.00,,,-99.99,Weather View 32 v60,2013-07-31 17:30:00,
2013-07-31 12:37:00,75.0,59.2,30.03,WNW,292,5.0,14.0,58,0.00,,,-99.99,Weather View 32 v60,2013-07-31 17:37:00,
2013-07-31 12:45:00,76.0,58.1,30.03,NNE,22,8.0,14.0,54,0.00,,,-99.99,Weather View 32 v60,2013-07-31 17:45:00,
2013-07-31 12:55:00,75.0,53.9,30.02,North,0,8.0,16.0,48,0.00,,,-99.99,Weather View 32 v60,2013-07-31 17:55:00,
2013-07-31 13:00:00,75.0,54.5,30.02,NNW,338,6.0,16.0,49,0.00,,,-99.99,Weather View 32 v60,2013-07-31 18:00:00,
2013-07-31 13:05:00,76.0,54.2,30.02,WSW,248,1.0,16.0,47,0.00,,,-99.99,Weather View 32 v60,2013-07-31 18:05:00,
2013-07-31 13:10:00,76.0,54.8,30.01,WNW,292,7.0,16.0,48,0.00,,,-99.99,Weather View 32 v60,2013-07-31 18:10:00,
2013-07-31 13:15:00,76.0,54.2,30.01,WNW,292,6.0,16.0,47,0.00,,,-99.99,Weather View 32 v60,2013-07-31 18:15:00,
2013-07-31 13:20:00,77.0,55.2,30.01,NNW,338,5.0,16.0,47,0.00,,,-99.99,Weather View 32 v60,2013-07-31 18:20:00,
2013-07-31 13:25:00,77.0,55.2,30.01,North,0,4.0,16.0,47,0.00,,,-99.99,Weather View 32 v60,2013-07-31 18:25:00,
2013-07-31 13:30:00,76.0,54.2,30.01,NNW,338,3.0,16.0,47,0.00,,,-99.99,Weather View 32 v60,2013-07-31 18:30:00,
2013-07-31 13:35:00,75.0,53.9,30.01,North,0,5.0,16.0,48,0.00,,,-99.99,Weather View 32 v60,2013-07-31 18:35:00,
2013-07-31 13:45:00,78.0,55.5,30.01,NW,315,5.0,16.0,46,0.00,,,-99.99,Weather View 32 v60,2013-07-31 18:45:00,
2013-07-31 13:50:00,78.0,53.0,30.00,NW,315,10.0,18.0,42,0.00,,,-99.99,Weather View 32 v60,2013-07-31 18:50:00,
2013-07-31 13:55:00,77.0,52.1,30.00,North,0,6.0,18.0,42,0.00,,,-99.99,Weather View 32 v60,2013-07-31 18:55:00,
2013-07-31 14:00:00,76.0,52.4,30.00,NW,315,7.0,18.0,44,0.00,,,-99.99,Weather View 32 v60,2013-07-31 19:00:00,
2013-07-31 14:05:00,76.0,52.4,30.00,NW,315,7.0,18.0,44,0.00,,,-99.99,Weather View 32 v60,2013-07-31 19:05:00,
2013-07-31 14:10:00,75.0,51.5,30.00,NNW,338,4.0,18.0,44,0.00,,,-99.99,Weather View 32 v60,2013-07-31 19:10:00,
2013-07-31 14:15:00,75.0,52.8,30.00,NNW,338,8.0,18.0,46,0.00,,,-99.99,Weather View 32 v60,2013-07-31 19:15:00,
2013-07-31 14:20:00,75.0,52.8,30.00,North,0,6.0,18.0,46,0.00,,,-99.99,Weather View 32 v60,2013-07-31 19:20:00,
2013-07-31 14:25:00,77.0,54.0,30.00,NNW,338,11.0,18.0,45,0.00,,,-99.99,Weather View 32 v60,2013-07-31 19:25:00,
2013-07-31 14:30:00,78.0,53.0,29.99,NW,315,11.0,18.0,42,0.00,,,-99.99,Weather View 32 v60,2013-07-31 19:30:00,
2013-07-31 14:35:00,78.0,52.3,29.99,NNW,338,5.0,18.0,41,0.00,,,-99.99,Weather View 32 v60,2013-07-31 19:35:00,
2013-07-31 14:40:00,78.0,53.0,29.99,NE,45,4.0,18.0,42,0.00,,,-99.99,Weather View 32 v60,2013-07-31 19:40:00,
2013-07-31 14:45:00,76.0,51.2,29.99,NW,315,5.0,18.0,42,0.00,,,-99.99,Weather View 32 v60,2013-07-31 19:45:00,
2013-07-31 14:50:00,76.0,51.8,29.99,NNW,338,4.0,18.0,43,0.00,,,-99.99,Weather View 32 v60,2013-07-31 19:50:00,
2013-07-31 14:55:00,75.0,51.5,29.99,West,270,5.0,18.0,44,0.00,,,-99.99,Weather View 32 v60,2013-07-31 19:55:00,
2013-07-31 15:00:00,75.0,52.2,29.99,NNW,338,9.0,18.0,45,0.00,,,-99.99,Weather View 32 v60,2013-07-31 20:00:00,
2013-07-31 15:05:00,76.0,51.8,29.99,West,270,1.0,18.0,43,0.00,,,-99.99,Weather View 32 v60,2013-07-31 20:05:00,
2013-07-31 15:10:00,78.0,51.6,29.98,North,0,4.0,18.0,40,0.00,,,-99.99,Weather View 32 v60,2013-07-31 20:10:00,
2013-07-31 15:15:00,79.0,51.1,29.98,NNW,338,6.0,18.0,38,0.00,,,-99.99,Weather View 32 v60,2013-07-31 20:15:00,
2013-07-31 15:20:00,79.0,51.1,29.98,WNW,292,8.0,18.0,38,0.00,,,-99.99,Weather View 32 v60,2013-07-31 20:20:00,
2013-07-31 15:25:00,79.0,51.1,29.98,North,0,3.0,18.0,38,0.00,,,-99.99,Weather View 32 v60,2013-07-31 20:25:00,
2013-07-31 15:35:00,79.0,51.1,29.98,NW,315,4.0,17.0,38,0.00,,,-99.99,Weather View 32 v60,2013-07-31 20:35:00,
2013-07-31 15:40:00,79.0,50.4,29.97,NW,315,10.0,17.0,37,0.00,,,-99.99,Weather View 32 v60,2013-07-31 20:40:00,
2013-07-31 15:50:00,80.0,49.0,29.97,NNE,22,11.0,17.0,34,0.00,,,-99.99,Weather View 32 v60,2013-07-31 20:50:00,
2013-07-31 15:55:00,80.0,49.8,29.97,North,0,10.0,17.0,35,0.00,,,-99.99,Weather View 32 v60,2013-07-31 20:55:00,
2013-07-31 16:00:00,80.0,49.0,29.97,North,0,6.0,17.0,34,0.00,,,-99.99,Weather View 32 v60,2013-07-31 21:00:00,
2013-07-31 16:10:00,80.0,47.4,29.97,North,0,10.0,17.0,32,0.00,,,-99.99,Weather View 32 v60,2013-07-31 21:10:00,
2013-07-31 16:15:00,80.0,46.6,29.97,NNE,22,9.0,17.0,31,0.00,,,-99.99,Weather View 32 v60,2013-07-31 21:15:00,
2013-07-31 16:20:00,80.0,46.6,29.97,NW,315,6.0,18.0,31,0.00,,,-99.99,Weather View 32 v60,2013-07-31 21:20:00,
2013-07-31 16:25:00,80.0,46.6,29.97,NNW,338,11.0,18.0,31,0.00,,,-99.99,Weather View 32 v60,2013-07-31 21:25:00,
2013-07-31 16:30:00,79.0,45.7,29.96,NNE,22,8.0,20.0,31,0.00,,,-99.99,Weather View 32 v60,2013-07-31 21:30:00,
2013-07-31 16:40:00,80.0,46.6,29.97,NNW,338,5.0,20.0,31,0.00,,,-99.99,Weather View 32 v60,2013-07-31 21:40:00,
2013-07-31 16:45:00,79.0,46.5,29.97,WNW,292,7.0,20.0,32,0.00,,,-99.99,Weather View 32 v60,2013-07-31 21:45:00,
2013-07-31 16:50:00,80.0,47.4,29.97,NNE,22,5.0,20.0,32,0.00,,,-99.99,Weather View 32 v60,2013-07-31 21:50:00,
2013-07-31 16:55:00,80.0,47.4,29.97,NNW,338,8.0,20.0,32,0.00,,,-99.99,Weather View 32 v60,2013-07-31 21:55:00,
2013-07-31 17:00:00,79.0,45.7,29.97,NNE,22,4.0,20.0,31,0.00,,,-99.99,Weather View 32 v60,2013-07-31 22:00:00,
2013-07-31 17:05:00,78.0,44.8,29.97,NNW,338,4.0,20.0,31,0.00,,,-99.99,Weather View 32 v60,2013-07-31 22:05:00,
2013-07-31 17:10:00,78.0,45.7,29.97,North,0,11.0,21.0,32,0.00,,,-99.99,Weather View 32 v60,2013-07-31 22:10:00,
2013-07-31 17:15:00,78.0,45.7,29.97,WNW,292,8.0,21.0,32,0.00,,,-99.99,Weather View 32 v60,2013-07-31 22:15:00,
2013-07-31 17:20:00,79.0,46.5,29.97,NNW,338,8.0,21.0,32,0.00,,,-99.99,Weather View 32 v60,2013-07-31 22:20:00,
2013-07-31 17:30:00,80.0,46.6,29.97,NNW,338,8.0,21.0,31,0.00,,,-99.99,Weather View 32 v60,2013-07-31 22:30:00,
2013-07-31 17:35:00,79.0,45.7,29.97,NNE,22,8.0,21.0,31,0.00,,,-99.99,Weather View 32 v60,2013-07-31 22:35:00,
2013-07-31 17:40:00,79.0,45.7,29.97,North,0,5.0,21.0,31,0.00,,,-99.99,Weather View 32 v60,2013-07-31 22:40:00,
2013-07-31 17:50:00,78.0,44.0,29.97,NNE,22,8.0,21.0,30,0.00,,,-99.99,Weather View 32 v60,2013-07-31 22:50:00,
2013-07-31 17:55:00,77.0,44.0,29.97,NNE,22,10.0,21.0,31,0.00,,,-99.99,Weather View 32 v60,2013-07-31 22:55:00,
2013-07-31 18:00:00,78.0,45.7,29.97,North,0,6.0,21.0,32,0.00,,,-99.99,Weather View 32 v60,2013-07-31 23:00:00,
2013-07-31 18:05:00,78.0,44.8,29.97,NE,45,11.0,21.0,31,0.00,,,-99.99,Weather View 32 v60,2013-07-31 23:05:00,
2013-07-31 18:10:00,78.0,45.7,29.97,WNW,292,4.0,20.0,32,0.00,,,-99.99,Weather View 32 v60,2013-07-31 23:10:00,
2013-07-31 18:20:00,78.0,45.7,29.97,NNW,338,11.0,20.0,32,0.00,,,-99.99,Weather View 32 v60,2013-07-31 23:20:00,
2013-07-31 18:30:00,77.0,44.8,29.97,North,0,8.0,20.0,32,0.00,,,-99.99,Weather View 32 v60,2013-07-31 23:30:00,
2013-07-31 18:35:00,77.0,44.8,29.97,NNE,22,5.0,20.0,32,0.00,,,-99.99,Weather View 32 v60,2013-07-31 23:35:00,
2013-07-31 18:41:00,77.0,45.6,29.97,NNE,22,8.0,20.0,33,0.00,,,-99.99,Weather View 32 v60,2013-07-31 23:41:00,
2013-07-31 18:50:00,76.0,46.3,29.97,NNW,338,8.0,20.0,35,0.00,,,-99.99,Weather View 32 v60,2013-07-31 23:50:00,
2013-07-31 18:55:00,76.0,46.3,29.97,NNE,22,8.0,20.0,35,0.00,,,-99.99,Weather View 32 v60,2013-07-31 23:55:00,
2013-07-31 19:00:00,75.0,46.9,29.97,North,0,8.0,20.0,37,0.00,,,-99.99,Weather View 32 v60,2013-08-01 00:00:00,
2013-07-31 19:05:00,74.0,46.0,29.97,NE,45,6.0,19.0,37,0.00,,,-99.99,Weather View 32 v60,2013-08-01 00:05:00,
2013-07-31 19:10:00,74.0,46.0,29.97,North,0,4.0,18.0,37,0.00,,,-99.99,Weather View 32 v60,2013-08-01 00:10:00,
2013-07-31 19:15:00,73.0,45.8,29.97,North,0,7.0,18.0,38,0.00,,,-99.99,Weather View 32 v60,2013-08-01 00:15:00,
2013-07-31 19:20:00,73.0,45.8,29.97,North,0,3.0,18.0,38,0.00,,,-99.99,Weather View 32 v60,2013-08-01 00:20:00,
2013-07-31 19:25:00,73.0,46.5,29.97,NNW,338,4.0,18.0,39,0.00,,,-99.99,Weather View 32 v60,2013-08-01 00:25:00,
2013-07-31 19:30:00,73.0,46.5,29.98,West,270,3.0,18.0,39,0.00,,,-99.99,Weather View 32 v60,2013-08-01 00:30:00,
2013-07-31 19:40:00,72.0,46.3,29.98,North,0,3.0,18.0,40,0.00,,,-99.99,Weather View 32 v60,2013-08-01 00:40:00,
2013-07-31 19:45:00,72.0,46.9,29.98,North,0,5.0,18.0,41,0.00,,,-99.99,Weather View 32 v60,2013-08-01 00:45:00,
2013-07-31 19:50:00,72.0,47.6,29.98,NNW,338,3.0,18.0,42,0.00,,,-99.99,Weather View 32 v60,2013-08-01 00:50:00,
2013-07-31 19:55:00,71.0,46.7,29.98,NNW,338,3.0,18.0,42,0.00,,,-99.99,Weather View 32 v60,2013-08-01 00:55:00,
2013-07-31 20:05:00,71.0,47.3,29.98,NNW,338,5.0,18.0,43,0.00,,,-99.99,Weather View 32 v60,2013-08-01 01:05:00,
2013-07-31 20:10:00,70.0,46.4,29.98,NNW,338,2.0,18.0,43,0.00,,,-99.99,Weather View 32 v60,2013-08-01 01:10:00,
2013-07-31 20:15:00,70.0,47.0,29.98,North,0,2.0,14.0,44,0.00,,,-99.99,Weather View 32 v60,2013-08-01 01:15:00,
2013-07-31 20:20:00,70.0,47.6,29.98,WNW,292,1.0,13.0,45,0.00,,,-99.99,Weather View 32 v60,2013-08-01 01:20:00,
2013-07-31 20:25:00,69.0,46.7,29.98,NNW,338,3.0,11.0,45,0.00,,,-99.99,Weather View 32 v60,2013-08-01 01:25:00,
2013-07-31 20:30:00,69.0,47.3,29.98,North,0,3.0,10.0,46,0.00,,,-99.99,Weather View 32 v60,2013-08-01 01:30:00,
2013-07-31 20:35:00,68.0,46.4,29.98,WNW,292,3.0,9.0,46,0.00,,,-99.99,Weather View 32 v60,2013-08-01 01:35:00,
2013-07-31 20:40:00,68.0,47.0,29.98,NW,315,1.0,9.0,47,0.00,,,-99.99,Weather View 32 v60,2013-08-01 01:40:00,
2013-07-31 20:45:00,67.0,46.1,29.98,NW,315,1.0,8.0,47,0.00,,,-99.99,Weather View 32 v60,2013-08-01 01:45:00,
2013-07-31 20:50:00,67.0,46.6,29.98,NW,315,2.0,8.0,48,0.00,,,-99.99,Weather View 32 v60,2013-08-01 01:50:00,
2013-07-31 20:55:00,66.0,46.2,29.98,WNW,292,1.0,8.0,49,0.00,,,-99.99,Weather View 32 v60,2013-08-01 01:55:00,
2013-07-31 21:00:00,65.0,45.9,29.98,West,270,1.0,8.0,50,0.00,,,-99.99,Weather View 32 v60,2013-08-01 02:00:00,
2013-07-31 21:05:00,65.0,46.4,29.98,WSW,248,1.0,6.0,51,0.00,,,-99.99,Weather View 32 v60,2013-08-01 02:05:00,
2013-07-31 21:10:00,64.0,46.0,29.98,SW,225,0.0,5.0,52,0.00,,,-99.99,Weather View 32 v60,2013-08-01 02:10:00,
2013-07-31 21:15:00,64.0,46.5,29.99,SW,225,0.0,5.0,53,0.00,,,-99.99,Weather View 32 v60,2013-08-01 02:15:00,
2013-07-31 21:20:00,63.0,46.1,29.99,SW,225,0.0,4.0,54,0.00,,,-99.99,Weather View 32 v60,2013-08-01 02:20:00,
2013-07-31 21:25:00,62.0,46.1,29.99,SW,225,0.0,4.0,56,0.00,,,-99.99,Weather View 32 v60,2013-08-01 02:25:00,
2013-07-31 21:30:00,62.0,46.6,29.99,SW,225,0.0,4.0,57,0.00,,,-99.99,Weather View 32 v60,2013-08-01 02:30:00,
2013-07-31 21:35:00,61.0,46.1,29.99,SW,225,0.0,3.0,58,0.00,,,-99.99,Weather View 32 v60,2013-08-01 02:35:00,
2013-07-31 21:40:00,60.0,46.0,29.99,SW,225,0.0,3.0,60,0.00,,,-99.99,Weather View 32 v60,2013-08-01 02:40:00,
2013-07-31 21:45:00,60.0,46.0,30.00,SW,225,0.0,3.0,60,0.00,,,-99.99,Weather View 32 v60,2013-08-01 02:45:00,
2013-07-31 21:50:00,59.0,46.0,30.00,SW,225,0.0,3.0,62,0.00,,,-99.99,Weather View 32 v60,2013-08-01 02:50:00,
2013-07-31 21:55:00,59.0,46.8,30.00,WSW,248,0.0,3.0,64,0.00,,,-99.99,Weather View 32 v60,2013-08-01 02:55:00,
2013-07-31 22:00:00,58.0,46.3,30.00,NW,315,3.0,3.0,65,0.00,,,-99.99,Weather View 32 v60,2013-08-01 03:00:00,
2013-07-31 22:05:00,58.0,46.3,30.01,NNW,338,1.0,5.0,65,0.00,,,-99.99,Weather View 32 v60,2013-08-01 03:05:00,
2013-07-31 22:10:00,58.0,46.7,30.00,NNW,338,2.0,5.0,66,0.00,,,-99.99,Weather View 32 v60,2013-08-01 03:10:00,
2013-07-31 22:15:00,58.0,46.7,30.00,North,0,2.0,5.0,66,0.00,,,-99.99,Weather View 32 v60,2013-08-01 03:15:00,
2013-07-31 22:20:00,59.0,47.6,30.00,North,0,3.0,5.0,66,0.00,,,-99.99,Weather View 32 v60,2013-08-01 03:20:00,
2013-07-31 22:25:00,59.0,47.6,30.00,North,0,3.0,5.0,66,0.00,,,-99.99,Weather View 32 v60,2013-08-01 03:25:00,
2013-07-31 22:30:00,59.0,47.2,30.00,North,0,2.0,5.0,65,0.00,,,-99.99,Weather View 32 v60,2013-08-01 03:30:00,
2013-07-31 22:35:00,59.0,47.2,30.00,North,0,3.0,5.0,65,0.00,,,-99.99,Weather View 32 v60,2013-08-01 03:35:00,
2013-07-31 22:40:00,59.0,47.2,30.00,North,0,2.0,5.0,65,0.00,,,-99.99,Weather View 32 v60,2013-08-01 03:40:00,
2013-07-31 22:45:00,59.0,47.2,30.00,WSW,248,1.0,5.0,65,0.00,,,-99.99,Weather View 32 v60,2013-08-01 03:45:00,
2013-07-31 22:50:00,59.0,47.2,30.00,SW,225,0.0,5.0,65,0.00,,,-99.99,Weather View 32 v60,2013-08-01 03:50:00,
2013-07-31 22:55:00,59.0,47.6,30.00,SW,225,0.0,5.0,66,0.00,,,-99.99,Weather View 32 v60,2013-08-01 03:55:00,
2013-07-31 23:00:00,59.0,47.6,30.00,SW,225,0.0,5.0,66,0.00,,,-99.99,Weather View 32 v60,2013-08-01 04:00:00,
2013-07-31 23:05:00,59.0,47.6,30.01,SW,225,0.0,5.0,66,0.00,,,-99.99,Weather View 32 v60,2013-08-01 04:05:00,
2013-07-31 23:10:00,58.0,47.1,30.01,SW,225,0.0,5.0,67,0.00,,,-99.99,Weather View 32 v60,2013-08-01 04:10:00,
2013-07-31 23:15:00,58.0,47.1,30.01,SW,225,0.0,5.0,67,0.00,,,-99.99,Weather View 32 v60,2013-08-01 04:15:00,
2013-07-31 23:20:00,57.0,46.5,30.01,SW,225,0.0,5.0,68,0.00,,,-99.99,Weather View 32 v60,2013-08-01 04:20:00,
2013-07-31 23:25:00,56.0,46.0,30.01,WSW,248,1.0,5.0,69,0.00,,,-99.99,Weather View 32 v60,2013-08-01 04:25:00,
2013-07-31 23:30:00,56.0,46.3,30.01,WNW,292,1.0,4.0,70,0.00,,,-99.99,Weather View 32 v60,2013-08-01 04:30:00,
2013-07-31 23:40:00,55.0,46.1,30.01,WSW,248,0.0,3.0,72,0.00,,,-99.99,Weather View 32 v60,2013-08-01 04:40:00,
2013-07-31 23:45:00,55.0,46.1,30.01,SW,225,0.0,3.0,72,0.00,,,-99.99,Weather View 32 v60,2013-08-01 04:45:00,
2013-07-31 23:50:00,55.0,46.5,30.01,WSW,248,0.0,3.0,73,0.00,,,-99.99,Weather View 32 v60,2013-08-01 04:50:00,
2013-07-31 23:55:00,55.0,46.5,30.01,SW,225,0.0,3.0,73,0.00,,,-99.99,Weather View 32 v60,2013-08-01 04:55:00,